• In Hungary
  • List of Countries
  • For 7 days
  • Water Temperature
  • Satellite Maps
  • Weather Map
  • News
  • Weather Widgets
  • user-avatar
    Login

    Hourly Weather Jalalabad

    Today, 24 April, Tuesday

    Time Temperature Precipitation Wind Pressure Humidity
    00:00 +26°C° 0 mm 1 mps 708 mmHg 38%
    01:00 +25°C° 0 mm 1 mps 708 mmHg 38%
    02:00 +25°C° 0 mm 1 mps 708 mmHg 38%
    03:00 +24°C° 0 mm 1 mps 708 mmHg 38%
    04:00 +24°C° 0 mm 1 mps 708 mmHg 37%
    05:00 +24°C° 0 mm 1 mps 708 mmHg 36%
    06:00 +26°C° 0 mm 1 mps 708 mmHg 32%
    07:00 +27°C° 0 mm 1 mps 708 mmHg 28%
    08:00 +29°C° 0 mm 1 mps 709 mmHg 25%
    09:00 +30°C° 0 mm 1 mps 709 mmHg 23%
    10:00 +31°C° 0 mm 1 mps 709 mmHg 21%
    11:00 +33°C° 0 mm 1 mps 709 mmHg 20%
    12:00 +33°C° 0 mm 1 mps 708 mmHg 19%
    13:00 +34°C° 0 mm 2 mps 708 mmHg 19%
    14:00 +35°C° 0 mm 2 mps 708 mmHg 19%
    15:00 +35°C° 0.1 mm 2 mps 708 mmHg 21%
    16:00 +34°C° 0.1 mm 2 mps 707 mmHg 23%
    17:00 +34°C° 0.1 mm 2 mps 707 mmHg 24%
    18:00 +32°C° 0.2 mm 2 mps 707 mmHg 28%
    19:00 +30°C° 0.2 mm 1 mps 708 mmHg 32%
    20:00 +29°C° 0.2 mm 1 mps 708 mmHg 36%
    21:00 +29°C° 0.1 mm 1 mps 708 mmHg 37%
    22:00 +28°C° 0.1 mm 1 mps 708 mmHg 38%
    23:00 +28°C° 0.1 mm 2 mps 708 mmHg 39%

    Tomorrow, 25 April, Wednesday

    Time Temperature Precipitation Wind Pressure Humidity
    00:00 +27°C° 0.2 mm 2 mps 708 mmHg 39%
    01:00 +26°C° 0.2 mm 2 mps 707 mmHg 39%
    02:00 +26°C° 0.2 mm 2 mps 707 mmHg 39%
    03:00 +25°C° 0.1 mm 2 mps 707 mmHg 39%
    04:00 +25°C° 0.1 mm 2 mps 707 mmHg 39%
    05:00 +24°C° 0.1 mm 2 mps 707 mmHg 40%
    06:00 +26°C° 0.1 mm 2 mps 707 mmHg 37%
    07:00 +27°C° 0.1 mm 3 mps 707 mmHg 34%
    08:00 +28°C° 0.1 mm 3 mps 708 mmHg 31%
    09:00 +30°C° 0 mm 3 mps 708 mmHg 29%
    10:00 +31°C° 0 mm 3 mps 708 mmHg 28%
    11:00 +33°C° 0 mm 3 mps 708 mmHg 26%
    12:00 +33°C° 0.1 mm 3 mps 707 mmHg 25%
    13:00 +34°C° 0.1 mm 3 mps 707 mmHg 24%
    14:00 +35°C° 0.1 mm 3 mps 707 mmHg 23%
    15:00 +34°C° 0.2 mm 4 mps 707 mmHg 23%
    16:00 +34°C° 0.2 mm 4 mps 706 mmHg 23%
    17:00 +34°C° 0.2 mm 4 mps 706 mmHg 23%
    18:00 +33°C° 0.1 mm 4 mps 707 mmHg 27%
    19:00 +30°C° 0.1 mm 3 mps 707 mmHg 30%
    20:00 +28°C° 0.1 mm 3 mps 707 mmHg 34%
    21:00 +28°C° 0 mm 3 mps 708 mmHg 34%
    22:00 +27°C° 0 mm 4 mps 708 mmHg 35%
    23:00 +26°C° 0 mm 4 mps 708 mmHg 36%

    Day after tomorrow, 26 April, Thursday

    Time Temperature Precipitation Wind Pressure Humidity
    00:00 +26°C° 0 mm 4 mps 708 mmHg 37%
    01:00 +25°C° 0 mm 3 mps 708 mmHg 37%
    02:00 +25°C° 0 mm 3 mps 707 mmHg 38%
    03:00 +24°C° 0 mm 3 mps 707 mmHg 38%
    04:00 +24°C° 0 mm 3 mps 707 mmHg 39%
    05:00 +22°C° 0 mm 3 mps 707 mmHg 39%
    06:00 +25°C° 0 mm 3 mps 707 mmHg 35%
    07:00 +26°C° 0 mm 3 mps 708 mmHg 30%
    08:00 +28°C° 0 mm 3 mps 708 mmHg 26%
    09:00 +29°C° 0 mm 3 mps 708 mmHg 23%
    10:00 +30°C° 0 mm 3 mps 708 mmHg 19%
    11:00 +33°C° 0 mm 3 mps 708 mmHg 16%
    12:00 +33°C° 0 mm 3 mps 707 mmHg 15%
    13:00 +34°C° 0 mm 3 mps 707 mmHg 14%
    14:00 +35°C° 0 mm 2 mps 707 mmHg 13%
    15:00 +35°C° 0 mm 2 mps 706 mmHg 12%
    16:00 +35°C° 0 mm 2 mps 706 mmHg 12%
    17:00 +35°C° 0 mm 2 mps 706 mmHg 12%
    18:00 +32°C° 0 mm 1 mps 706 mmHg 15%
    19:00 +30°C° 0 mm 1 mps 706 mmHg 19%
    20:00 +29°C° 0 mm 1 mps 707 mmHg 23%
    21:00 +28°C° 0.1 mm 1 mps 707 mmHg 24%
    22:00 +28°C° 0.1 mm 1 mps 708 mmHg 25%
    23:00 +28°C° 0.1 mm 2 mps 708 mmHg 26%

    27 April, Friday

    Time Temperature Precipitation Wind Pressure Humidity
    00:00 +27°C° 0.2 mm 2 mps 708 mmHg 28%
    01:00 +26°C° 0.2 mm 2 mps 707 mmHg 30%
    02:00 +26°C° 0.2 mm 2 mps 707 mmHg 32%
    03:00 +25°C° 0 mm 2 mps 707 mmHg 31%
    04:00 +25°C° 0 mm 2 mps 707 mmHg 31%
    05:00 +24°C° 0 mm 2 mps 707 mmHg 30%
    06:00 +26°C° 0 mm 2 mps 708 mmHg 27%
    07:00 +27°C° 0 mm 2 mps 708 mmHg 23%
    08:00 +29°C° 0 mm 2 mps 708 mmHg 19%
    09:00 +30°C° 0 mm 2 mps 708 mmHg 17%
    10:00 +31°C° 0 mm 2 mps 709 mmHg 15%
    11:00 +32°C° 0 mm 2 mps 709 mmHg 13%
    12:00 +34°C° 0 mm 2 mps 708 mmHg 13%
    13:00 +34°C° 0 mm 2 mps 708 mmHg 12%
    14:00 +35°C° 0 mm 2 mps 708 mmHg 12%
    15:00 +35°C° 0 mm 2 mps 707 mmHg 12%
    16:00 +35°C° 0 mm 2 mps 707 mmHg 12%
    17:00 +35°C° 0 mm 2 mps 707 mmHg 12%
    18:00 +32°C° 0 mm 2 mps 708 mmHg 16%
    19:00 +30°C° 0 mm 2 mps 708 mmHg 19%
    20:00 +29°C° 0 mm 1 mps 709 mmHg 23%
    21:00 +28°C° 0 mm 2 mps 709 mmHg 24%
    22:00 +28°C° 0 mm 2 mps 709 mmHg 24%
    23:00 +27°C° 0 mm 3 mps 709 mmHg 25%

    28 April, Saturday

    Time Temperature Precipitation Wind Pressure Humidity
    00:00 +26°C° 0 mm 3 mps 709 mmHg 26%
    01:00 +26°C° 0 mm 3 mps 708 mmHg 27%
    02:00 +25°C° 0 mm 3 mps 708 mmHg 27%
    03:00 +25°C° 0 mm 3 mps 708 mmHg 28%
    04:00 +24°C° 0 mm 3 mps 708 mmHg 29%
    05:00 +24°C° 0 mm 3 mps 708 mmHg 29%
    06:00 +25°C° 0 mm 3 mps 708 mmHg 26%
    07:00 +27°C° 0 mm 3 mps 708 mmHg 23%
    08:00 +28°C° 0 mm 3 mps 709 mmHg 20%
    09:00 +30°C° 0 mm 3 mps 709 mmHg 18%
    10:00 +31°C° 0 mm 3 mps 709 mmHg 16%
    11:00 +33°C° 0 mm 3 mps 709 mmHg 14%
    12:00 +34°C° 0 mm 2 mps 708 mmHg 13%
    13:00 +34°C° 0 mm 2 mps 708 mmHg 12%
    14:00 +35°C° 0 mm 2 mps 708 mmHg 12%
    15:00 +35°C° 0 mm 2 mps 708 mmHg 12%
    16:00 +35°C° 0 mm 2 mps 708 mmHg 12%
    17:00 +35°C° 0 mm 2 mps 707 mmHg 11%
    18:00 +32°C° 0 mm 2 mps 708 mmHg 15%
    19:00 +30°C° 0 mm 1 mps 708 mmHg 19%
    20:00 +29°C° 0 mm 1 mps 708 mmHg 23%
    21:00 +28°C° 0 mm 1 mps 708 mmHg 23%
    22:00 +27°C° 0 mm 1 mps 709 mmHg 23%
    23:00 +27°C° 0 mm 1 mps 709 mmHg 24%

    29 April, Sunday

    Time Temperature Precipitation Wind Pressure Humidity
    00:00 +26°C° 0 mm 1 mps 708 mmHg 23%
    01:00 +26°C° 0 mm 2 mps 708 mmHg 23%
    02:00 +25°C° 0 mm 2 mps 707 mmHg 23%
    03:00 +25°C° 0 mm 2 mps 707 mmHg 23%
    04:00 +24°C° 0 mm 2 mps 707 mmHg 23%
    05:00 +24°C° 0 mm 2 mps 707 mmHg 23%
    06:00 +26°C° 0 mm 2 mps 707 mmHg 21%
    07:00 +27°C° 0 mm 2 mps 708 mmHg 19%
    08:00 +29°C° 0 mm 2 mps 708 mmHg 16%
    09:00 +30°C° 0 mm 2 mps 708 mmHg 15%
    10:00 +32°C° 0 mm 2 mps 708 mmHg 13%
    11:00 +34°C° 0 mm 2 mps 707 mmHg 11%
    12:00 +34°C° 0 mm 2 mps 707 mmHg 10%
    13:00 +35°C° 0 mm 2 mps 706 mmHg 10%
    14:00 +36°C° 0 mm 2 mps 706 mmHg 9%
    15:00 +36°C° 0 mm 2 mps 706 mmHg 8%
    16:00 +36°C° 0 mm 2 mps 705 mmHg 8%
    17:00 +36°C° 0 mm 2 mps 705 mmHg 8%
    18:00 +34°C° 0 mm 2 mps 705 mmHg 11%
    19:00 +31°C° 0 mm 1 mps 705 mmHg 15%
    20:00 +29°C° 0 mm 1 mps 705 mmHg 18%
    21:00 +28°C° 0 mm 1 mps 706 mmHg 19%
    22:00 +28°C° 0 mm 1 mps 706 mmHg 19%
    23:00 +27°C° 0 mm 1 mps 706 mmHg 19%
    Show more